Tracking 29892 objects as of 21-Nov-2024
HD Live streaming from Space Station
objects crossing your sky now

STARLINK-30506

Track STARLINK-30506 now!
10-day predictions
STARLINK-30506 is classified as:


NORAD ID: 58072
Int'l Code: 2023-158X
Perigee: 565.5 km
Apogee: 566.9 km
Inclination: 43.0 °
Period: 95.8 minutes
Semi major axis: 6937 km
RCS: Unknown
Launch date: October 13, 2023
Source: United States (US)
Launch site: AIR FORCE EASTERN TEST RANGE (AFETR)
Your satellite tracking list
Your tracking list is empty




NASA's NSSDC Master Catalog

Two Line Element Set (TLE):
1 58072U 23158X   24325.35786986  .00001724  00000-0  14267-3 0  9996
2 58072  43.0016  87.3609 0001032 277.9415  82.1311 15.02542044 62182
Source of the keplerian elements: AFSPC